Port Aransas, TX

11:34 AM CDT on August 31, 2016 (GMT -0500)
Port Aransas

Weather History for KRAS - October, 2013

Change the Weather History Date:

Thursday, October 24, 2013

  Actual Average (KCRP) Record (KCRP)
Temperature  
Mean Temperature 70 °F 73 °F  
Max Temperature 78 °F 83 °F 94 °F (2001)
Min Temperature 63 °F 63 °F 43 °F (1979)
Degree Days  
Heating Degree Days 0 1  
Month to date heating degree days 1  
Since 1 July heating degree days 1  
Cooling Degree Days 6 8  
Month to date cooling degree days 257  
Year to date cooling degree days 3300  
Growing Degree Days 20 (Base 50)    
Moisture  
Dew Point 60 °F    
Average Humidity 67    
Maximum Humidity 91    
Minimum Humidity 51    
Precipitation  
Precipitation 0.00 in 0.11 in 2.94 in (2002)
Month to date precipitation 2.91  
Year to date precipitation 27.23  
Snow  
Snow 0.00 in - - ()
Month to date snowfall  
Since 1 July snowfall  
Since 1 September snowfall  
Snow Depth -    
Sea Level Pressure  
Sea Level Pressure 30.16 in    
Wind  
Wind Speed 5 mph (ENE)    
Max Wind Speed 12 mph    
Max Gust Speed -    
Visibility 10 miles    
Events      
T = Trace of Precipitation, MM = Missing Value Source: NWS Daily Summary

Daily Weather History Graph

Daily Weather History Graph

Search for Another Location

Airport or City:

Trip Planner

Search our weather history database for the weather conditions in past years. The results will help you decide how hot, cold, wet, or windy it might be!

Date:

Astronomy

Oct. 24, 2013 Rise Set
Actual Time 7:34 AM CDT 6:50 PM CDT
Civil Twilight 7:10 AM CDT 7:14 PM CDT
Nautical Twilight 6:42 AM CDT 7:41 PM CDT
Astronomical Twilight 6:15 AM CDT 8:08 PM CDT
Moon 11:26 PM CDT (10/24) 12:25 PM CDT (10/24)
Length of Visible Light 12h 03m
Length of Day
11h 16m
Waning Gibbous, 71% of the Moon is Illuminated
Oct 24
Waning Gibbous
Oct 26
Last Quarter
Nov 3
New
Nov 9
First Quarter
Nov 17
Full

Hourly Weather History & Observations

Time (CDT) Temp. Dew Point Humidity Pressure Visibility Wind Dir Wind Speed Gust Speed Precip Events Conditions
12:15 AM 70.3 °F 55.2 °F 59% 30.13 in 10.0 mi SE 4.6 mph - N/A   Clear
12:35 AM 70.9 °F 54.1 °F 55% 30.13 in 10.0 mi SE 4.6 mph - N/A   Clear
12:55 AM 70.3 °F 54.0 °F 56% 30.13 in 10.0 mi SE 5.8 mph - N/A   Clear
1:15 AM 70.7 °F 53.4 °F 54% 30.12 in 10.0 mi SE 3.5 mph - N/A   Clear
1:35 AM 71.1 °F 53.6 °F 54% 30.12 in 10.0 mi SE 3.5 mph - N/A   Clear
1:55 AM 71.1 °F 53.1 °F 53% 30.12 in 10.0 mi Calm Calm - N/A   Clear
2:15 AM 70.7 °F 53.8 °F 55% 30.12 in 10.0 mi SSE 5.8 mph - N/A   Clear
2:35 AM 70.7 °F 53.6 °F 55% 30.12 in 10.0 mi SE 3.5 mph - N/A   Clear
2:55 AM 70.5 °F 54.7 °F 57% 30.12 in 10.0 mi SSE 4.6 mph - N/A   Clear
3:15 AM 70.5 °F 54.3 °F 56% 30.11 in 10.0 mi SE 4.6 mph - N/A   Clear
3:35 AM 68.9 °F 55.2 °F 62% 30.11 in 10.0 mi Calm Calm - N/A   Clear
3:55 AM 66.2 °F 58.8 °F 77% 30.11 in 10.0 mi Calm Calm - N/A   Clear
4:15 AM 67.1 °F 60.6 °F 80% 30.11 in 10.0 mi Calm Calm - N/A   Clear
4:35 AM 66.4 °F 62.2 °F 86% 30.11 in 10.0 mi NNW 3.5 mph - N/A   Clear
4:55 AM 66.9 °F 63.5 °F 89% 30.11 in 10.0 mi NNW 5.8 mph - N/A   Clear
5:15 AM 65.7 °F 62.6 °F 90% 30.12 in 10.0 mi NNW 3.5 mph - N/A   Clear
5:35 AM 65.5 °F 62.4 °F 90% 30.12 in 10.0 mi NNW 3.5 mph - N/A   Clear
5:55 AM 65.3 °F 61.9 °F 89% 30.13 in 10.0 mi Calm Calm - N/A   Clear
6:15 AM 64.9 °F 62.1 °F 90% 30.13 in 10.0 mi Calm Calm - N/A   Clear
6:35 AM 64.4 °F 61.5 °F 90% 30.14 in 10.0 mi NNW 3.5 mph - N/A   Clear
6:55 AM 64.0 °F 61.0 °F 90% 30.14 in 10.0 mi North 3.5 mph - N/A   Clear
7:15 AM 64.4 °F 61.3 °F 90% 30.14 in 10.0 mi North 4.6 mph - N/A   Clear
7:35 AM 63.7 °F 61.0 °F 91% 30.15 in 10.0 mi NNW 5.8 mph - N/A   Clear
7:55 AM 64.4 °F 61.0 °F 89% 30.16 in 10.0 mi NNW 4.6 mph - N/A   Clear
8:15 AM 64.4 °F 61.0 °F 89% 30.17 in 10.0 mi North 4.6 mph - N/A   Clear
8:35 AM 65.3 °F 60.6 °F 85% 30.17 in 10.0 mi North 5.8 mph - N/A   Clear
8:55 AM 66.2 °F 60.6 °F 82% 30.18 in 10.0 mi North 5.8 mph - N/A   Clear
9:15 AM 67.3 °F 61.0 °F 80% 30.19 in 10.0 mi North 5.8 mph - N/A   Clear
9:35 AM 68.4 °F 61.3 °F 78% 30.19 in 10.0 mi North 4.6 mph - N/A   Clear
9:55 AM 69.6 °F 61.0 °F 74% 30.20 in 10.0 mi North 5.8 mph - N/A   Clear
10:15 AM 71.1 °F 61.0 °F 70% 30.20 in 10.0 mi North 5.8 mph - N/A   Clear
10:35 AM 72.5 °F 60.6 °F 66% 30.20 in 10.0 mi NNE 5.8 mph - N/A   Clear
10:55 AM 73.8 °F 61.2 °F 65% 30.20 in 10.0 mi North 5.8 mph - N/A   Clear
11:15 AM 74.7 °F 60.6 °F 61% 30.20 in 10.0 mi NNE 5.8 mph - N/A   Clear
11:35 AM 75.2 °F 60.1 °F 59% 30.21 in 10.0 mi NNE 6.9 mph - N/A   Clear
11:55 AM 76.1 °F 60.4 °F 58% 30.21 in 10.0 mi NE 5.8 mph - N/A   Clear
12:15 PM 76.6 °F 59.7 °F 56% 30.20 in 10.0 mi East 5.8 mph - N/A   Clear
12:35 PM 77.4 °F 58.1 °F 51% 30.20 in 10.0 mi East 3.5 mph - N/A   Clear
12:55 PM 77.2 °F 58.3 °F 52% 30.20 in 10.0 mi East 4.6 mph - N/A   Clear
1:15 PM 77.7 °F 58.1 °F 51% 30.19 in 10.0 mi ENE 6.9 mph - N/A   Clear
1:35 PM 78.3 °F 58.8 °F 51% 30.18 in 10.0 mi ENE 8.1 mph - N/A   Clear
1:55 PM 77.4 °F 60.8 °F 57% 30.17 in 10.0 mi East 6.9 mph - N/A   Clear
2:15 PM 76.5 °F 62.8 °F 62% 30.17 in 10.0 mi ENE 9.2 mph - N/A   Clear
2:35 PM 76.6 °F 63.9 °F 65% 30.16 in 10.0 mi ENE 9.2 mph - N/A   Clear
2:55 PM 77.7 °F 63.5 °F 61% 30.15 in 10.0 mi East 9.2 mph - N/A   Clear
3:15 PM 78.3 °F 63.1 °F 60% 30.15 in 10.0 mi East 10.4 mph - N/A   Clear
3:35 PM 77.7 °F 62.8 °F 60% 30.14 in 10.0 mi ENE 10.4 mph - N/A   Clear
3:55 PM 77.7 °F 63.0 °F 60% 30.14 in 10.0 mi ENE 11.5 mph - N/A   Clear
4:15 PM 77.7 °F 63.3 °F 61% 30.14 in 10.0 mi East 10.4 mph - N/A   Clear
4:35 PM 77.9 °F 62.8 °F 60% 30.14 in 10.0 mi ENE 10.4 mph - N/A   Clear
4:55 PM 77.2 °F 63.7 °F 63% 30.14 in 10.0 mi ENE 9.2 mph - N/A   Clear
5:15 PM 77.0 °F 63.5 °F 63% 30.14 in 10.0 mi ENE 10.4 mph - N/A   Clear
5:35 PM 76.8 °F 62.8 °F 62% 30.14 in 10.0 mi ENE 10.4 mph - N/A   Clear
5:55 PM 76.1 °F 63.5 °F 65% 30.14 in 10.0 mi ENE 10.4 mph - N/A   Clear
6:15 PM 75.4 °F 63.1 °F 66% 30.14 in 10.0 mi ENE 9.2 mph - N/A   Clear
6:35 PM 74.8 °F 63.5 °F 68% 30.14 in 10.0 mi ENE 9.2 mph - N/A   Clear
6:55 PM 74.3 °F 63.3 °F 68% 30.15 in 10.0 mi ENE 9.2 mph - N/A   Clear
7:15 PM 74.3 °F 63.7 °F 69% 30.15 in 10.0 mi NE 6.9 mph - N/A   Mostly Cloudy
7:35 PM 73.4 °F 63.5 °F 71% 30.15 in 10.0 mi ENE 5.8 mph - N/A   Scattered Clouds
7:55 PM 74.3 °F 59.5 °F 60% 30.16 in 10.0 mi East 8.1 mph - N/A   Scattered Clouds
8:15 PM 74.3 °F 59.5 °F 60% 30.17 in 10.0 mi East 6.9 mph - N/A   Clear
8:35 PM 73.9 °F 60.4 °F 63% 30.17 in 10.0 mi ESE 6.9 mph - N/A   Mostly Cloudy
8:55 PM 74.3 °F 60.3 °F 61% 30.17 in 10.0 mi ESE 9.2 mph - N/A   Scattered Clouds
9:15 PM 74.7 °F 59.7 °F 60% 30.18 in 10.0 mi East 8.1 mph - N/A   Scattered Clouds
9:35 PM 74.3 °F 59.7 °F 60% 30.19 in 10.0 mi ESE 6.9 mph - N/A   Scattered Clouds
9:55 PM 74.3 °F 60.4 °F 62% 30.19 in 10.0 mi ESE 6.9 mph - N/A   Scattered Clouds
10:15 PM 74.3 °F 60.8 °F 63% 30.19 in 10.0 mi ESE 6.9 mph - N/A   Scattered Clouds
10:35 PM 73.9 °F 59.9 °F 61% 30.20 in 10.0 mi ESE 8.1 mph - N/A   Scattered Clouds
10:55 PM 74.3 °F 59.4 °F 60% 30.19 in 10.0 mi ESE 6.9 mph - N/A   Scattered Clouds
11:15 PM 73.6 °F 59.0 °F 60% 30.20 in 10.0 mi ESE 6.9 mph - N/A   Clear
11:35 PM 73.9 °F 59.9 °F 61% 30.19 in 10.0 mi ESE 5.8 mph - N/A   Scattered Clouds
11:55 PM 74.3 °F 61.3 °F 64% 30.20 in 10.0 mi ESE 8.1 mph - N/A   Mostly Cloudy